owner,sensor,date,latitude,longitude,vertical_datum,wind_speed,wind_to_direction,wind_speed_of_gust,qcFlag 
DISL,ioos:station:DISL:DISL:1,2016-10-01T00:00:00Z,30.2513,-88.0778,9.68,0.0,0.0,-9999.0,'1114422,1114422,1111122' 
DISL,ioos:station:DISL:DISL:1,2016-10-01T00:30:00Z,30.2513,-88.0778,9.68,0.58,251.3,-9999.0,'1111122,1111122,1111122' 
DISL,ioos:station:DISL:DISL:1,2016-10-01T01:00:00Z,30.2513,-88.0778,9.68,0.56,281.7,-9999.0,'1111122,1111122,1111122' 
DISL,ioos:station:DISL:DISL:1,2016-10-01T01:30:00Z,30.2513,-88.0778,9.68,0.51,272.1,-9999.0,'1111122,1111122,1111122' 
DISL,ioos:station:DISL:DISL:1,2016-10-01T02:00:00Z,30.2513,-88.0778,9.68,0.63,272.6,-9999.0,'1111122,1111122,1111122' 
DISL,ioos:station:DISL:DISL:1,2016-10-01T02:30:00Z,30.2513,-88.0778,9.68,3.65,331.2,-9999.0,'1111122,1111122,1111122' 
DISL,ioos:station:DISL:DISL:1,2016-10-01T03:00:00Z,30.2513,-88.0778,9.68,3.5,333.6,-9999.0,'1111122,1111122,1111122' 
DISL,ioos:station:DISL:DISL:1,2016-10-01T03:30:00Z,30.2513,-88.0778,9.68,3.19,56.66,-9999.0,'1111122,1111122,1111122' 
DISL,ioos:station:DISL:DISL:1,2016-10-01T04:00:00Z,30.2513,-88.0778,9.68,4.53,87.5,-9999.0,'1111122,1111122,1111122' 
DISL,ioos:station:DISL:DISL:1,2016-10-01T04:30:00Z,30.2513,-88.0778,9.68,4.64,92.2,-9999.0,'1111122,1111122,1111122' 
DISL,ioos:station:DISL:DISL:1,2016-10-01T05:30:00Z,30.2513,-88.0778,9.68,4.94,90.0,-9999.0,'1111122,1111122,1111122' 
DISL,ioos:station:DISL:DISL:1,2016-10-01T06:00:00Z,30.2513,-88.0778,9.68,5.19,87.5,-9999.0,'1111122,1111122,1111122' 
DISL,ioos:station:DISL:DISL:1,2016-10-01T06:30:00Z,30.2513,-88.0778,9.68,4.91,86.7,-9999.0,'1111122,1111122,1111122' 
DISL,ioos:station:DISL:DISL:1,2016-10-01T07:00:00Z,30.2513,-88.0778,9.68,4.98,84.3,-9999.0,'1111122,1111122,1111122' 
DISL,ioos:station:DISL:DISL:1,2016-10-01T07:30:00Z,30.2513,-88.0778,9.68,4.2,84.3,-9999.0,'1111122,1111122,1111122' 
DISL,ioos:station:DISL:DISL:1,2016-10-01T08:00:00Z,30.2513,-88.0778,9.68,3.48,86.8,-9999.0,'1111122,1111122,1111122' 
DISL,ioos:station:DISL:DISL:1,2016-10-01T08:30:00Z,30.2513,-88.0778,9.68,3.11,93.0,-9999.0,'1111122,1111122,1111122' 
DISL,ioos:station:DISL:DISL:1,2016-10-01T09:00:00Z,30.2513,-88.0778,9.68,2.35,90.1,-9999.0,'1111122,1111122,1111122' 
DISL,ioos:station:DISL:DISL:1,2016-10-01T09:30:00Z,30.2513,-88.0778,9.68,2.15,88.9,-9999.0,'1111122,1111122,1111122' 
DISL,ioos:station:DISL:DISL:1,2016-10-01T10:00:00Z,30.2513,-88.0778,9.68,1.64,70.68,-9999.0,'1111122,1111122,1111122' 
DISL,ioos:station:DISL:DISL:1,2016-10-01T10:30:00Z,30.2513,-88.0778,9.68,1.03,46.45,-9999.0,'1111122,1111122,1111122' 
DISL,ioos:station:DISL:DISL:1,2016-10-01T11:00:00Z,30.2513,-88.0778,9.68,1.46,88.0,-9999.0,'1111122,1111122,1111122' 
DISL,ioos:station:DISL:DISL:1,2016-10-01T11:30:00Z,30.2513,-88.0778,9.68,1.92,57.91,-9999.0,'1111122,1111122,1111122' 
DISL,ioos:station:DISL:DISL:1,2016-10-01T12:00:00Z,30.2513,-88.0778,9.68,1.86,31.02,-9999.0,'1111122,1111122,1111122' 
DISL,ioos:station:DISL:DISL:1,2016-10-01T12:30:00Z,30.2513,-88.0778,9.68,1.41,41.76,-9999.0,'1111122,1111122,1111122' 
DISL,ioos:station:DISL:DISL:1,2016-10-01T13:00:00Z,30.2513,-88.0778,9.68,2.41,52.45,-9999.0,'1111122,1111122,1111122' 
DISL,ioos:station:DISL:DISL:1,2016-10-01T13:30:00Z,30.2513,-88.0778,9.68,2.32,50.11,-9999.0,'1111122,1111122,1111122' 
DISL,ioos:station:DISL:DISL:1,2016-10-01T14:00:00Z,30.2513,-88.0778,9.68,2.99,63.49,-9999.0,'1111122,1111122,1111122' 
DISL,ioos:station:DISL:DISL:1,2016-10-01T14:30:00Z,30.2513,-88.0778,9.68,2.74,53.33,-9999.0,'1111122,1111122,1111122' 
DISL,ioos:station:DISL:DISL:1,2016-10-01T15:00:00Z,30.2513,-88.0778,9.68,4.09,28.24,-9999.0,'1111122,1111122,1111122' 
DISL,ioos:station:DISL:DISL:1,2016-10-01T15:30:00Z,30.2513,-88.0778,9.68,3.52,23.0,-9999.0,'1111122,1111122,1111122' 
DISL,ioos:station:DISL:DISL:1,2016-10-01T16:00:00Z,30.2513,-88.0778,9.68,3.45,18.23,-9999.0,'1111122,1111122,1111122' 
DISL,ioos:station:DISL:DISL:1,2016-10-01T16:30:00Z,30.2513,-88.0778,9.68,3.18,20.8,-9999.0,'1111122,1111122,1111122' 
DISL,ioos:station:DISL:DISL:1,2016-10-01T17:00:00Z,30.2513,-88.0778,9.68,3.36,29.75,-9999.0,'1111122,1111122,1111122' 
DISL,ioos:station:DISL:DISL:1,2016-10-01T17:30:00Z,30.2513,-88.0778,9.68,2.85,39.41,-9999.0,'1111122,1111122,1111122' 
DISL,ioos:station:DISL:DISL:1,2016-10-01T18:00:00Z,30.2513,-88.0778,9.68,2.12,66.49,-9999.0,'1111122,1111122,1111122' 
DISL,ioos:station:DISL:DISL:1,2016-10-01T18:30:00Z,30.2513,-88.0778,9.68,2.29,62.48,-9999.0,'1111122,1111122,1111122' 
DISL,ioos:station:DISL:DISL:1,2016-10-01T19:00:00Z,30.2513,-88.0778,9.68,1.83,52.78,-9999.0,'1111122,1111122,1111122' 
DISL,ioos:station:DISL:DISL:1,2016-10-01T19:30:00Z,30.2513,-88.0778,9.68,1.44,81.7,-9999.0,'1111122,1111122,1111122' 
DISL,ioos:station:DISL:DISL:1,2016-10-01T20:00:00Z,30.2513,-88.0778,9.68,1.5,93.1,-9999.0,'1111122,1111122,1111122' 
DISL,ioos:station:DISL:DISL:1,2016-10-01T20:30:00Z,30.2513,-88.0778,9.68,2.12,127.7,-9999.0,'1111122,1111122,1111122' 
DISL,ioos:station:DISL:DISL:1,2016-10-01T21:00:00Z,30.2513,-88.0778,9.68,1.22,139.9,-9999.0,'1111122,1111122,1111122' 
DISL,ioos:station:DISL:DISL:1,2016-10-01T21:30:00Z,30.2513,-88.0778,9.68,1.83,202.9,-9999.0,'1111122,1111122,1111122' 
DISL,ioos:station:DISL:DISL:1,2016-10-01T22:00:00Z,30.2513,-88.0778,9.68,1.58,225.5,-9999.0,'1111122,1111122,1111122' 
DISL,ioos:station:DISL:DISL:1,2016-10-01T22:30:00Z,30.2513,-88.0778,9.68,1.4,237.4,-9999.0,'1111122,1111122,1111122' 
DISL,ioos:station:DISL:DISL:1,2016-10-01T23:00:00Z,30.2513,-88.0778,9.68,1.02,252.2,-9999.0,'1111122,1111122,1111122' 
DISL,ioos:station:DISL:DISL:1,2016-10-01T23:30:00Z,30.2513,-88.0778,9.68,1.02,223.0,-9999.0,'1111122,1111122,1111122' 
DISL,ioos:station:DISL:DISL:1,2016-10-02T00:00:00Z,30.2513,-88.0778,9.68,0.95,174.5,-9999.0,'1111122,1111122,1111122' 
DISL,ioos:station:DISL:DISL:1,2016-10-02T00:30:00Z,30.2513,-88.0778,9.68,0.91,215.0,-9999.0,'1111122,1111122,1111122' 
DISL,ioos:station:DISL:DISL:1,2016-10-02T01:00:00Z,30.2513,-88.0778,9.68,1.04,230.4,-9999.0,'1111122,1111122,1111122' 
DISL,ioos:station:DISL:DISL:1,2016-10-02T01:30:00Z,30.2513,-88.0778,9.68,0.99,220.6,-9999.0,'1111122,1111122,1111122' 
DISL,ioos:station:DISL:DISL:1,2016-10-02T02:00:00Z,30.2513,-88.0778,9.68,0.82,213.5,-9999.0,'1111122,1111122,1111122' 
DISL,ioos:station:DISL:DISL:1,2016-10-02T02:30:00Z,30.2513,-88.0778,9.68,0.77,238.4,-9999.0,'1111122,1111122,1111122' 
DISL,ioos:station:DISL:DISL:1,2016-10-02T03:00:00Z,30.2513,-88.0778,9.68,1.1,236.4,-9999.0,'1111122,1111122,1111122' 
DISL,ioos:station:DISL:DISL:1,2016-10-02T03:30:00Z,30.2513,-88.0778,9.68,0.66,218.8,-9999.0,'1111122,1111122,1111122' 
DISL,ioos:station:DISL:DISL:1,2016-10-02T04:00:00Z,30.2513,-88.0778,9.68,0.62,219.8,-9999.0,'1111122,1111122,1111122' 
DISL,ioos:station:DISL:DISL:1,2016-10-02T04:30:00Z,30.2513,-88.0778,9.68,0.81,231.5,-9999.0,'1111122,1111122,1111122' 
DISL,ioos:station:DISL:DISL:1,2016-10-02T05:30:00Z,30.2513,-88.0778,9.68,1.03,286.5,-9999.0,'1111122,1111122,1111122' 
DISL,ioos:station:DISL:DISL:1,2016-10-02T06:00:00Z,30.2513,-88.0778,9.68,1.08,282.1,-9999.0,'1111122,1111122,1111122' 
DISL,ioos:station:DISL:DISL:1,2016-10-02T06:30:00Z,30.2513,-88.0778,9.68,0.52,295.6,-9999.0,'1111122,1111122,1111122' 
DISL,ioos:station:DISL:DISL:1,2016-10-02T07:00:00Z,30.2513,-88.0778,9.68,0.81,298.1,-9999.0,'1111122,1111122,1111122' 
DISL,ioos:station:DISL:DISL:1,2016-10-02T07:30:00Z,30.2513,-88.0778,9.68,0.78,288.8,-9999.0,'1111122,1111122,1111122' 
DISL,ioos:station:DISL:DISL:1,2016-10-02T08:00:00Z,30.2513,-88.0778,9.68,0.89,282.9,-9999.0,'1111122,1111122,1111122' 
DISL,ioos:station:DISL:DISL:1,2016-10-02T08:30:00Z,30.2513,-88.0778,9.68,2.04,21.77,-9999.0,'1111122,1111122,1111122' 
DISL,ioos:station:DISL:DISL:1,2016-10-02T09:00:00Z,30.2513,-88.0778,9.68,3.16,353.5,-9999.0,'1111122,1111122,1111122' 
DISL,ioos:station:DISL:DISL:1,2016-10-02T09:30:00Z,30.2513,-88.0778,9.68,3.33,354.7,-9999.0,'1111122,1111122,1111122' 
DISL,ioos:station:DISL:DISL:1,2016-10-02T10:00:00Z,30.2513,-88.0778,9.68,3.86,341.7,-9999.0,'1111122,1111122,1111122' 
DISL,ioos:station:DISL:DISL:1,2016-10-02T10:30:00Z,30.2513,-88.0778,9.68,4.08,337.8,-9999.0,'1111122,1111122,1111122' 
DISL,ioos:station:DISL:DISL:1,2016-10-02T11:00:00Z,30.2513,-88.0778,9.68,4.24,345.5,-9999.0,'1111122,1111122,1111122' 
DISL,ioos:station:DISL:DISL:1,2016-10-02T11:30:00Z,30.2513,-88.0778,9.68,4.06,354.7,-9999.0,'1111122,1111122,1111122' 
DISL,ioos:station:DISL:DISL:1,2016-10-02T12:00:00Z,30.2513,-88.0778,9.68,3.98,0.386,-9999.0,'1111122,1111122,1111122' 
DISL,ioos:station:DISL:DISL:1,2016-10-02T12:30:00Z,30.2513,-88.0778,9.68,4.47,350.2,-9999.0,'1111122,1111122,1111122' 
DISL,ioos:station:DISL:DISL:1,2016-10-02T13:00:00Z,30.2513,-88.0778,9.68,5.14,2.104,-9999.0,'1111122,1111122,1111122' 
DISL,ioos:station:DISL:DISL:1,2016-10-02T13:30:00Z,30.2513,-88.0778,9.68,5.25,7.974,-9999.0,'1111122,1111122,1111122' 
DISL,ioos:station:DISL:DISL:1,2016-10-02T14:00:00Z,30.2513,-88.0778,9.68,5.68,14.4,-9999.0,'1111122,1111122,1111122' 
DISL,ioos:station:DISL:DISL:1,2016-10-02T14:30:00Z,30.2513,-88.0778,9.68,5.76,20.23,-9999.0,'1111122,1111122,1111122' 
DISL,ioos:station:DISL:DISL:1,2016-10-02T15:00:00Z,30.2513,-88.0778,9.68,5.76,7.722,-9999.0,'1111122,1111122,1111122' 
DISL,ioos:station:DISL:DISL:1,2016-10-02T15:30:00Z,30.2513,-88.0778,9.68,5.35,9.85,-9999.0,'1111122,1111122,1111122' 
DISL,ioos:station:DISL:DISL:1,2016-10-02T16:00:00Z,30.2513,-88.0778,9.68,5.26,19.93,-9999.0,'1111122,1111122,1111122' 
DISL,ioos:station:DISL:DISL:1,2016-10-02T16:30:00Z,30.2513,-88.0778,9.68,4.65,41.83,-9999.0,'1111122,1111122,1111122' 
DISL,ioos:station:DISL:DISL:1,2016-10-02T17:00:00Z,30.2513,-88.0778,9.68,4.36,46.42,-9999.0,'1111122,1111122,1111122' 
DISL,ioos:station:DISL:DISL:1,2016-10-02T17:30:00Z,30.2513,-88.0778,9.68,4.24,65.31,-9999.0,'1111122,1111122,1111122' 
DISL,ioos:station:DISL:DISL:1,2016-10-02T18:00:00Z,30.2513,-88.0778,9.68,3.91,63.35,-9999.0,'1111122,1111122,1111122' 
DISL,ioos:station:DISL:DISL:1,2016-10-02T18:30:00Z,30.2513,-88.0778,9.68,3.45,51.64,-9999.0,'1111122,1111122,1111122' 
DISL,ioos:station:DISL:DISL:1,2016-10-02T19:00:00Z,30.2513,-88.0778,9.68,3.08,48.57,-9999.0,'1111122,1111122,1111122' 
DISL,ioos:station:DISL:DISL:1,2016-10-02T19:30:00Z,30.2513,-88.0778,9.68,3.09,54.9,-9999.0,'1111122,1111122,1111122' 
DISL,ioos:station:DISL:DISL:1,2016-10-02T20:00:00Z,30.2513,-88.0778,9.68,2.55,80.4,-9999.0,'1111122,1111122,1111122' 
DISL,ioos:station:DISL:DISL:1,2016-10-02T20:30:00Z,30.2513,-88.0778,9.68,2.28,357.7,-9999.0,'1111122,1111122,1111122' 
DISL,ioos:station:DISL:DISL:1,2016-10-02T21:00:00Z,30.2513,-88.0778,9.68,1.27,341.1,-9999.0,'1111122,1111122,1111122' 
DISL,ioos:station:DISL:DISL:1,2016-10-02T21:30:00Z,30.2513,-88.0778,9.68,0.57,5.468,-9999.0,'1111122,1111122,1111122' 
DISL,ioos:station:DISL:DISL:1,2016-10-02T22:00:00Z,30.2513,-88.0778,9.68,0.25,309.8,-9999.0,'1111122,1111122,1111122' 
DISL,ioos:station:DISL:DISL:1,2016-10-02T22:30:00Z,30.2513,-88.0778,9.68,0.85,38.52,-9999.0,'1111122,1111122,1111122' 
DISL,ioos:station:DISL:DISL:1,2016-10-02T23:00:00Z,30.2513,-88.0778,9.68,1.7,82.6,-9999.0,'1111122,1111122,1111122' 
DISL,ioos:station:DISL:DISL:1,2016-10-02T23:30:00Z,30.2513,-88.0778,9.68,2.19,126.6,-9999.0,'1111122,1111122,1111122' 
DISL,ioos:station:DISL:DISL:1,2016-10-03T00:00:00Z,30.2513,-88.0778,9.68,2.48,118.1,-9999.0,'1111122,1111122,1111122' 
DISL,ioos:station:DISL:DISL:1,2016-10-03T00:30:00Z,30.2513,-88.0778,9.68,1.02,139.7,-9999.0,'1111122,1111122,1111122' 
DISL,ioos:station:DISL:DISL:1,2016-10-03T01:00:00Z,30.2513,-88.0778,9.68,1.02,99.7,-9999.0,'1111122,1111122,1111122' 
DISL,ioos:station:DISL:DISL:1,2016-10-03T01:30:00Z,30.2513,-88.0778,9.68,1.71,63.64,-9999.0,'1111122,1111122,1111122' 
DISL,ioos:station:DISL:DISL:1,2016-10-03T02:00:00Z,30.2513,-88.0778,9.68,1.95,64.27,-9999.0,'1111122,1111122,1111122' 
DISL,ioos:station:DISL:DISL:1,2016-10-03T02:30:00Z,30.2513,-88.0778,9.68,2.98,54.84,-9999.0,'1111122,1111122,1111122' 
DISL,ioos:station:DISL:DISL:1,2016-10-03T03:00:00Z,30.2513,-88.0778,9.68,3.6,64.74,-9999.0,'1111122,1111122,1111122' 
DISL,ioos:station:DISL:DISL:1,2016-10-03T03:30:00Z,30.2513,-88.0778,9.68,2.93,67.83,-9999.0,'1111122,1111122,1111122' 
DISL,ioos:station:DISL:DISL:1,2016-10-03T04:00:00Z,30.2513,-88.0778,9.68,2.58,62.56,-9999.0,'1111122,1111122,1111122' 
DISL,ioos:station:DISL:DISL:1,2016-10-03T04:30:00Z,30.2513,-88.0778,9.68,2.77,55.23,-9999.0,'1111122,1111122,1111122' 
DISL,ioos:station:DISL:DISL:1,2016-10-03T05:30:00Z,30.2513,-88.0778,9.68,3.45,61.58,-9999.0,'1111122,1111122,1111122' 
DISL,ioos:station:DISL:DISL:1,2016-10-03T06:00:00Z,30.2513,-88.0778,9.68,3.66,45.73,-9999.0,'1111122,1111122,1111122' 
DISL,ioos:station:DISL:DISL:1,2016-10-03T06:30:00Z,30.2513,-88.0778,9.68,4.16,39.9,-9999.0,'1111122,1111122,1111122' 
DISL,ioos:station:DISL:DISL:1,2016-10-03T07:00:00Z,30.2513,-88.0778,9.68,4.35,27.1,-9999.0,'1111122,1111122,1111122' 
DISL,ioos:station:DISL:DISL:1,2016-10-03T07:30:00Z,30.2513,-88.0778,9.68,4.8,40.05,-9999.0,'1111122,1111122,1111122' 
DISL,ioos:station:DISL:DISL:1,2016-10-03T08:00:00Z,30.2513,-88.0778,9.68,4.29,35.33,-9999.0,'1111122,1111122,1111122' 
DISL,ioos:station:DISL:DISL:1,2016-10-03T08:30:00Z,30.2513,-88.0778,9.68,4.02,39.18,-9999.0,'1111122,1111122,1111122' 
DISL,ioos:station:DISL:DISL:1,2016-10-03T09:00:00Z,30.2513,-88.0778,9.68,3.67,38.67,-9999.0,'1111122,1111122,1111122' 
DISL,ioos:station:DISL:DISL:1,2016-10-03T09:30:00Z,30.2513,-88.0778,9.68,3.25,40.48,-9999.0,'1111122,1111122,1111122' 
DISL,ioos:station:DISL:DISL:1,2016-10-03T10:00:00Z,30.2513,-88.0778,9.68,3.64,32.63,-9999.0,'1111122,1111122,1111122' 
DISL,ioos:station:DISL:DISL:1,2016-10-03T10:30:00Z,30.2513,-88.0778,9.68,4.29,24.8,-9999.0,'1111122,1111122,1111122' 
DISL,ioos:station:DISL:DISL:1,2016-10-03T11:00:00Z,30.2513,-88.0778,9.68,4.68,23.48,-9999.0,'1111122,1111122,1111122' 
DISL,ioos:station:DISL:DISL:1,2016-10-03T11:30:00Z,30.2513,-88.0778,9.68,5.15,17.97,-9999.0,'1111122,1111122,1111122' 
DISL,ioos:station:DISL:DISL:1,2016-10-03T12:00:00Z,30.2513,-88.0778,9.68,5.25,19.3,-9999.0,'1111122,1111122,1111122' 
DISL,ioos:station:DISL:DISL:1,2016-10-03T12:30:00Z,30.2513,-88.0778,9.68,5.89,15.76,-9999.0,'1111122,1111122,1111122' 
DISL,ioos:station:DISL:DISL:1,2016-10-03T13:00:00Z,30.2513,-88.0778,9.68,5.96,27.54,-9999.0,'1111122,1111122,1111122' 
DISL,ioos:station:DISL:DISL:1,2016-10-03T13:30:00Z,30.2513,-88.0778,9.68,6.15,36.86,-9999.0,'1111122,1111122,1111122' 
DISL,ioos:station:DISL:DISL:1,2016-10-03T14:00:00Z,30.2513,-88.0778,9.68,5.38,29.42,-9999.0,'1111122,1111122,1111122' 
DISL,ioos:station:DISL:DISL:1,2016-10-03T14:30:00Z,30.2513,-88.0778,9.68,5.58,17.31,-9999.0,'1111122,1111122,1111122' 
DISL,ioos:station:DISL:DISL:1,2016-10-03T15:00:00Z,30.2513,-88.0778,9.68,5.5,25.77,-9999.0,'1111122,1111122,1111122' 
DISL,ioos:station:DISL:DISL:1,2016-10-03T15:30:00Z,30.2513,-88.0778,9.68,4.95,21.73,-9999.0,'1111122,1111122,1111122' 
DISL,ioos:station:DISL:DISL:1,2016-10-03T16:00:00Z,30.2513,-88.0778,9.68,5.14,32.36,-9999.0,'1111122,1111122,1111122' 
DISL,ioos:station:DISL:DISL:1,2016-10-03T16:30:00Z,30.2513,-88.0778,9.68,4.38,28.69,-9999.0,'1111122,1111122,1111122' 
DISL,ioos:station:DISL:DISL:1,2016-10-03T17:00:00Z,30.2513,-88.0778,9.68,3.5,32.2,-9999.0,'1111122,1111122,1111122' 
DISL,ioos:station:DISL:DISL:1,2016-10-03T17:30:00Z,30.2513,-88.0778,9.68,2.75,35.94,-9999.0,'1111122,1111122,1111122' 
DISL,ioos:station:DISL:DISL:1,2016-10-03T18:00:00Z,30.2513,-88.0778,9.68,2.84,14.64,-9999.0,'1111122,1111122,1111122' 
DISL,ioos:station:DISL:DISL:1,2016-10-03T18:30:00Z,30.2513,-88.0778,9.68,2.04,14.58,-9999.0,'1111122,1111122,1111122' 
DISL,ioos:station:DISL:DISL:1,2016-10-03T19:00:00Z,30.2513,-88.0778,9.68,1.32,2.346,-9999.0,'1111122,1111122,1111122' 
DISL,ioos:station:DISL:DISL:1,2016-10-03T19:30:00Z,30.2513,-88.0778,9.68,1.87,345.5,-9999.0,'1111122,1111122,1111122' 
DISL,ioos:station:DISL:DISL:1,2016-10-03T20:00:00Z,30.2513,-88.0778,9.68,0.68,31.37,-9999.0,'1111122,1111122,1111122' 
DISL,ioos:station:DISL:DISL:1,2016-10-03T20:30:00Z,30.2513,-88.0778,9.68,1.13,50.85,-9999.0,'1111122,1111122,1111122' 
DISL,ioos:station:DISL:DISL:1,2016-10-03T21:00:00Z,30.2513,-88.0778,9.68,1.44,119.9,-9999.0,'1111122,1111122,1111122' 
DISL,ioos:station:DISL:DISL:1,2016-10-03T21:30:00Z,30.2513,-88.0778,9.68,1.52,212.1,-9999.0,'1111122,1111122,1111122' 
DISL,ioos:station:DISL:DISL:1,2016-10-03T22:00:00Z,30.2513,-88.0778,9.68,0.97,195.0,-9999.0,'1111122,1111122,1111122' 
DISL,ioos:station:DISL:DISL:1,2016-10-03T22:30:00Z,30.2513,-88.0778,9.68,1.38,195.5,-9999.0,'1111122,1111122,1111122' 
DISL,ioos:station:DISL:DISL:1,2016-10-03T23:00:00Z,30.2513,-88.0778,9.68,1.5,175.2,-9999.0,'1111122,1111122,1111122' 
DISL,ioos:station:DISL:DISL:1,2016-10-03T23:30:00Z,30.2513,-88.0778,9.68,1.08,170.8,-9999.0,'1111122,1111122,1111122' 
DISL,ioos:station:DISL:DISL:1,2016-10-04T00:00:00Z,30.2513,-88.0778,9.68,0.48,172.1,-9999.0,'1111122,1111122,1111122' 
DISL,ioos:station:DISL:DISL:1,2016-10-04T00:30:00Z,30.2513,-88.0778,9.68,0.37,235.0,-9999.0,'1111122,1111122,1111122' 
DISL,ioos:station:DISL:DISL:1,2016-10-04T01:00:00Z,30.2513,-88.0778,9.68,0.66,174.0,-9999.0,'1111122,1111122,1111122' 
DISL,ioos:station:DISL:DISL:1,2016-10-04T01:30:00Z,30.2513,-88.0778,9.68,0.74,144.8,-9999.0,'1111122,1111122,1111122' 
DISL,ioos:station:DISL:DISL:1,2016-10-04T02:00:00Z,30.2513,-88.0778,9.68,0.05,273.0,-9999.0,'1111122,1111122,1111122' 
DISL,ioos:station:DISL:DISL:1,2016-10-04T02:30:00Z,30.2513,-88.0778,9.68,0.63,142.4,-9999.0,'1111122,1111122,1111122' 
DISL,ioos:station:DISL:DISL:1,2016-10-04T03:00:00Z,30.2513,-88.0778,9.68,0.0,0.0,-9999.0,'1114422,1114422,1111122' 
DISL,ioos:station:DISL:DISL:1,2016-10-04T03:30:00Z,30.2513,-88.0778,9.68,0.47,121.9,-9999.0,'1111122,1111122,1111122' 
DISL,ioos:station:DISL:DISL:1,2016-10-04T04:00:00Z,30.2513,-88.0778,9.68,0.75,286.5,-9999.0,'1111122,1111122,1111122' 
DISL,ioos:station:DISL:DISL:1,2016-10-04T04:30:00Z,30.2513,-88.0778,9.68,0.87,294.8,-9999.0,'1111122,1111122,1111122' 
DISL,ioos:station:DISL:DISL:1,2016-10-04T05:30:00Z,30.2513,-88.0778,9.68,1.58,26.93,-9999.0,'1111122,1111122,1111122' 
DISL,ioos:station:DISL:DISL:1,2016-10-04T06:00:00Z,30.2513,-88.0778,9.68,1.4,17.07,-9999.0,'1111122,1111122,1111122' 
DISL,ioos:station:DISL:DISL:1,2016-10-04T06:30:00Z,30.2513,-88.0778,9.68,1.59,5.689,-9999.0,'1111122,1111122,1111122' 
DISL,ioos:station:DISL:DISL:1,2016-10-04T07:00:00Z,30.2513,-88.0778,9.68,2.14,10.63,-9999.0,'1111122,1111122,1111122' 
DISL,ioos:station:DISL:DISL:1,2016-10-04T07:30:00Z,30.2513,-88.0778,9.68,2.32,4.724,-9999.0,'1111122,1111122,1111122' 
DISL,ioos:station:DISL:DISL:1,2016-10-04T08:00:00Z,30.2513,-88.0778,9.68,2.87,1.476,-9999.0,'1111122,1111122,1111122' 
DISL,ioos:station:DISL:DISL:1,2016-10-04T08:30:00Z,30.2513,-88.0778,9.68,3.08,345.6,-9999.0,'1111122,1111122,1111122' 
DISL,ioos:station:DISL:DISL:1,2016-10-04T09:00:00Z,30.2513,-88.0778,9.68,3.47,356.4,-9999.0,'1111122,1111122,1111122' 
DISL,ioos:station:DISL:DISL:1,2016-10-04T09:30:00Z,30.2513,-88.0778,9.68,2.61,16.32,-9999.0,'1111122,1111122,1111122' 
DISL,ioos:station:DISL:DISL:1,2016-10-04T10:00:00Z,30.2513,-88.0778,9.68,2.33,31.76,-9999.0,'1111122,1111122,1111122' 
DISL,ioos:station:DISL:DISL:1,2016-10-04T10:30:00Z,30.2513,-88.0778,9.68,2.42,27.81,-9999.0,'1111122,1111122,1111122' 
DISL,ioos:station:DISL:DISL:1,2016-10-04T11:00:00Z,30.2513,-88.0778,9.68,2.35,47.22,-9999.0,'1111122,1111122,1111122' 
DISL,ioos:station:DISL:DISL:1,2016-10-04T11:30:00Z,30.2513,-88.0778,9.68,2.65,42.2,-9999.0,'1111122,1111122,1111122' 
DISL,ioos:station:DISL:DISL:1,2016-10-04T12:00:00Z,30.2513,-88.0778,9.68,2.6,39.01,-9999.0,'1111122,1111122,1111122' 
DISL,ioos:station:DISL:DISL:1,2016-10-04T12:30:00Z,30.2513,-88.0778,9.68,2.28,32.24,-9999.0,'1111122,1111122,1111122' 
DISL,ioos:station:DISL:DISL:1,2016-10-04T13:00:00Z,30.2513,-88.0778,9.68,4.73,60.67,-9999.0,'1111122,1111122,1111122' 
DISL,ioos:station:DISL:DISL:1,2016-10-04T13:30:00Z,30.2513,-88.0778,9.68,5.38,74.59,-9999.0,'1111122,1111122,1111122' 
DISL,ioos:station:DISL:DISL:1,2016-10-04T14:00:00Z,30.2513,-88.0778,9.68,5.25,77.15,-9999.0,'1111122,1111122,1111122' 
DISL,ioos:station:DISL:DISL:1,2016-10-04T14:30:00Z,30.2513,-88.0778,9.68,5.19,77.51,-9999.0,'1111122,1111122,1111122' 
DISL,ioos:station:DISL:DISL:1,2016-10-04T15:00:00Z,30.2513,-88.0778,9.68,5.24,72.83,-9999.0,'1111122,1111122,1111122' 
DISL,ioos:station:DISL:DISL:1,2016-10-04T15:30:00Z,30.2513,-88.0778,9.68,5.11,71.97,-9999.0,'1111122,1111122,1111122' 
DISL,ioos:station:DISL:DISL:1,2016-10-04T16:00:00Z,30.2513,-88.0778,9.68,5.13,74.01,-9999.0,'1111122,1111122,1111122' 
DISL,ioos:station:DISL:DISL:1,2016-10-04T16:30:00Z,30.2513,-88.0778,9.68,6.71,99.5,-9999.0,'1111122,1111122,1111122' 
DISL,ioos:station:DISL:DISL:1,2016-10-04T17:00:00Z,30.2513,-88.0778,9.68,7.5,104.0,-9999.0,'1111122,1111122,1111122' 
DISL,ioos:station:DISL:DISL:1,2016-10-04T17:30:00Z,30.2513,-88.0778,9.68,8.12,100.8,-9999.0,'1111122,1111122,1111122' 
DISL,ioos:station:DISL:DISL:1,2016-10-04T18:00:00Z,30.2513,-88.0778,9.68,7.5,109.3,-9999.0,'1111122,1111122,1111122' 
DISL,ioos:station:DISL:DISL:1,2016-10-04T18:30:00Z,30.2513,-88.0778,9.68,6.85,110.3,-9999.0,'1111122,1111122,1111122' 
DISL,ioos:station:DISL:DISL:1,2016-10-04T19:00:00Z,30.2513,-88.0778,9.68,7.18,105.5,-9999.0,'1111122,1111122,1111122' 
DISL,ioos:station:DISL:DISL:1,2016-10-04T19:30:00Z,30.2513,-88.0778,9.68,6.84,112.1,-9999.0,'1111122,1111122,1111122' 
DISL,ioos:station:DISL:DISL:1,2016-10-04T20:00:00Z,30.2513,-88.0778,9.68,6.29,111.1,-9999.0,'1111122,1111122,1111122' 
DISL,ioos:station:DISL:DISL:1,2016-10-04T20:30:00Z,30.2513,-88.0778,9.68,5.97,115.0,-9999.0,'1111122,1111122,1111122' 
DISL,ioos:station:DISL:DISL:1,2016-10-04T21:00:00Z,30.2513,-88.0778,9.68,5.3,123.5,-9999.0,'1111122,1111122,1111122' 
DISL,ioos:station:DISL:DISL:1,2016-10-04T21:30:00Z,30.2513,-88.0778,9.68,5.52,122.3,-9999.0,'1111122,1111122,1111122' 
DISL,ioos:station:DISL:DISL:1,2016-10-04T22:00:00Z,30.2513,-88.0778,9.68,5.68,120.5,-9999.0,'1111122,1111122,1111122' 
DISL,ioos:station:DISL:DISL:1,2016-10-04T22:30:00Z,30.2513,-88.0778,9.68,5.41,124.3,-9999.0,'1111122,1111122,1111122' 
DISL,ioos:station:DISL:DISL:1,2016-10-04T23:00:00Z,30.2513,-88.0778,9.68,4.72,130.0,-9999.0,'1111122,1111122,1111122' 
DISL,ioos:station:DISL:DISL:1,2016-10-04T23:30:00Z,30.2513,-88.0778,9.68,4.4,127.5,-9999.0,'1111122,1111122,1111122' 
DISL,ioos:station:DISL:DISL:1,2016-10-05T00:00:00Z,30.2513,-88.0778,9.68,4.01,130.6,-9999.0,'1111122,1111122,1111122' 
DISL,ioos:station:DISL:DISL:1,2016-10-05T00:30:00Z,30.2513,-88.0778,9.68,3.91,130.8,-9999.0,'1111122,1111122,1111122' 
DISL,ioos:station:DISL:DISL:1,2016-10-05T01:00:00Z,30.2513,-88.0778,9.68,2.83,143.6,-9999.0,'1111122,1111122,1111122' 
DISL,ioos:station:DISL:DISL:1,2016-10-05T01:30:00Z,30.2513,-88.0778,9.68,2.94,150.8,-9999.0,'1111122,1111122,1111122' 
DISL,ioos:station:DISL:DISL:1,2016-10-05T02:00:00Z,30.2513,-88.0778,9.68,2.73,147.6,-9999.0,'1111122,1111122,1111122' 
DISL,ioos:station:DISL:DISL:1,2016-10-05T02:30:00Z,30.2513,-88.0778,9.68,2.79,134.5,-9999.0,'1111122,1111122,1111122' 
DISL,ioos:station:DISL:DISL:1,2016-10-05T03:00:00Z,30.2513,-88.0778,9.68,2.68,130.3,-9999.0,'1111122,1111122,1111122' 
DISL,ioos:station:DISL:DISL:1,2016-10-05T03:30:00Z,30.2513,-88.0778,9.68,3.08,120.2,-9999.0,'1111122,1111122,1111122' 
DISL,ioos:station:DISL:DISL:1,2016-10-05T04:00:00Z,30.2513,-88.0778,9.68,3.22,104.5,-9999.0,'1111122,1111122,1111122' 
DISL,ioos:station:DISL:DISL:1,2016-10-05T04:30:00Z,30.2513,-88.0778,9.68,3.43,85.5,-9999.0,'1111122,1111122,1111122' 
DISL,ioos:station:DISL:DISL:1,2016-10-05T05:30:00Z,30.2513,-88.0778,9.68,2.9,74.74,-9999.0,'1111122,1111122,1111122' 
DISL,ioos:station:DISL:DISL:1,2016-10-05T06:00:00Z,30.2513,-88.0778,9.68,3.38,70.3,-9999.0,'1111122,1111122,1111122' 
DISL,ioos:station:DISL:DISL:1,2016-10-05T06:30:00Z,30.2513,-88.0778,9.68,4.71,62.15,-9999.0,'1111122,1111122,1111122' 